Perryton, TX

5:45 AM CST on February 28, 2017 (GMT -0600)
Perryton Ochiltree County

Weather History for KPYX - April, 2013

Change the Weather History Date:

Thursday, April 25, 2013

  Actual Average Record
Temperature  
Mean Temperature 50 °F -  
Max Temperature 68 °F 72 °F 95 °F (2012)
Min Temperature 31 °F 41 °F 31 °F (2013)
Degree Days  
Heating Degree Days 16    
Moisture  
Dew Point 21 °F    
Average Humidity 36    
Maximum Humidity 73    
Minimum Humidity 11    
Precipitation  
Precipitation 0.00 in - - ()
Sea Level Pressure  
Sea Level Pressure 30.19 in    
Wind  
Wind Speed 14 mph (South)    
Max Wind Speed 26 mph    
Max Gust Speed 34 mph    
Visibility 10 miles    
Events      
Averages and records for this station are not official NWS values.
T = Trace of Precipitation, MM = Missing Value Source: NWS Daily Summary

Daily Weather History Graph

Daily Weather History Graph

Search for Another Location

Airport or City:

Trip Planner

Search our weather history database for the weather conditions in past years. The results will help you decide how hot, cold, wet, or windy it might be!

Date:

Astronomy

Apr. 25, 2013 Rise Set
Actual Time 6:56 AM CDT 8:26 PM CDT
Civil Twilight 6:29 AM CDT 8:53 PM CDT
Nautical Twilight 5:56 AM CDT 9:26 PM CDT
Astronomical Twilight 5:22 AM CDT 10:00 PM CDT
Moon 8:40 PM CDT (4/25) 6:40 AM CDT (4/25)
Length of Visible Light 14h 24m
Length of Day
13h 29m
Full, 100% of the Moon is Illuminated
Apr 25
Full
Apr 25
Full
May 2
Last Quarter
May 9
New
May 17
First Quarter

Hourly Weather History & Observations

Time (CDT) Temp. Windchill Dew Point Humidity Pressure Visibility Wind Dir Wind Speed Gust Speed Precip Events Conditions
12:15 AM 40.1 °F 33.6 °F 23.0 °F 51% 30.27 in 10.0 mi SE 10.4 mph - N/A   Clear
12:35 AM 38.7 °F 32.4 °F 23.0 °F 53% 30.27 in 10.0 mi SSE 9.2 mph - N/A   Clear
12:55 AM 36.1 °F 29.3 °F 22.5 °F 58% 30.28 in 10.0 mi SSE 9.2 mph - N/A   Clear
1:15 AM 35.1 °F 27.9 °F 22.8 °F 61% 30.28 in 10.0 mi SSE 9.2 mph - N/A   Clear
1:35 AM 33.4 °F 26.6 °F 22.1 °F 63% 30.28 in 10.0 mi South 8.1 mph - N/A   Clear
1:55 AM 32.7 °F 25.7 °F 22.8 °F 67% 30.28 in 10.0 mi South 8.1 mph - N/A   Clear
2:15 AM 34.7 °F 27.5 °F 23.9 °F 65% 30.28 in 10.0 mi South 9.2 mph - N/A   Clear
2:35 AM 36.9 °F 29.6 °F 24.8 °F 62% 30.27 in 10.0 mi South 10.4 mph - N/A   Clear
2:55 AM 34.2 °F 27.5 °F 23.9 °F 66% 30.27 in 10.0 mi South 8.1 mph - N/A   Clear
3:15 AM 32.5 °F 25.5 °F 23.9 °F 70% 30.27 in 10.0 mi South 8.1 mph - N/A   Clear
3:35 AM 33.3 °F 26.4 °F 24.4 °F 70% 30.26 in 10.0 mi SSW 8.1 mph - N/A   Clear
3:55 AM 31.8 °F 23.9 °F 23.5 °F 71% 30.27 in 10.0 mi South 9.2 mph - N/A   Clear
4:15 AM 31.6 °F 23.1 °F 23.9 °F 73% 30.27 in 10.0 mi South 10.4 mph - N/A   Clear
4:35 AM 34.2 °F 27.5 °F 25.3 °F 70% 30.27 in 10.0 mi South 8.1 mph - N/A   Clear
4:55 AM 36.1 °F 29.3 °F 26.6 °F 68% 30.26 in 10.0 mi South 9.2 mph - N/A   Clear
5:15 AM 37.9 °F 31.5 °F 26.6 °F 64% 30.26 in 10.0 mi South 9.2 mph - N/A   Clear
5:35 AM 37.9 °F 31.5 °F 26.6 °F 64% 30.27 in 10.0 mi South 9.2 mph - N/A   Clear
5:55 AM 37.6 °F 31.0 °F 26.6 °F 65% 30.27 in 10.0 mi South 9.2 mph - N/A   Clear
6:15 AM 37.8 °F 31.3 °F 26.8 °F 65% 30.26 in 10.0 mi South 9.2 mph - N/A   Clear
6:35 AM 37.9 °F 31.5 °F 27.0 °F 65% 30.27 in 10.0 mi SSW 9.2 mph - N/A   Clear
6:55 AM 38.3 °F 31.9 °F 27.1 °F 64% 30.27 in 10.0 mi SSW 9.2 mph - N/A   Clear
7:15 AM 38.3 °F 31.9 °F 27.0 °F 64% 30.27 in 10.0 mi SSW 9.2 mph - N/A   Clear
7:35 AM 39.7 °F 33.7 °F 27.5 °F 62% 30.27 in 10.0 mi SSW 9.2 mph - N/A   Clear
7:55 AM 43.5 °F 37.5 °F 28.2 °F 55% 30.27 in 10.0 mi SSW 11.5 mph - N/A   Clear
8:15 AM 44.4 °F 37.5 °F 27.7 °F 52% 30.26 in 10.0 mi SSW 15.0 mph - N/A   Clear
8:35 AM 46.6 °F - 27.5 °F 47% 30.26 in 10.0 mi SSW 16.1 mph - N/A   Clear
8:55 AM 48.4 °F - 27.5 °F 44% 30.25 in 10.0 mi SSW 16.1 mph 20.7 mph N/A   Clear
9:15 AM 49.6 °F - 26.6 °F 41% 30.25 in 10.0 mi South 13.8 mph - N/A   Clear
9:35 AM 53.4 °F - 26.6 °F 36% 30.26 in 10.0 mi South 16.1 mph - N/A   Clear
9:55 AM 56.5 °F - 25.0 °F 30% 30.26 in 10.0 mi SSW 18.4 mph 25.3 mph N/A   Clear
10:15 AM 57.2 °F - 24.1 °F 28% 30.26 in 10.0 mi SSW 16.1 mph - N/A   Clear
10:35 AM 57.6 °F - 23.5 °F 27% 30.26 in 10.0 mi South 18.4 mph - N/A   Clear
10:55 AM 58.1 °F - 23.0 °F 26% 30.26 in 10.0 mi SSW 19.6 mph 23.0 mph N/A   Clear
11:15 AM 58.3 °F - 22.8 °F 25% 30.26 in 10.0 mi SSW 17.3 mph - N/A   Clear
11:35 AM 60.6 °F - 22.5 °F 23% 30.26 in 10.0 mi SSW 13.8 mph - N/A   Clear
11:55 AM 63.1 °F - 13.6 °F 15% 30.25 in 10.0 mi South 19.6 mph 26.5 mph N/A   Clear
12:15 PM 64.4 °F - 11.5 °F 13% 30.25 in 10.0 mi South 26.5 mph 31.1 mph N/A   Clear
12:35 PM 64.4 °F - 11.1 °F 12% 30.24 in 10.0 mi South 24.2 mph 29.9 mph N/A   Clear
12:55 PM 64.6 °F - 9.0 °F 11% 30.22 in 10.0 mi South 24.2 mph 32.2 mph N/A   Clear
1:15 PM 63.9 °F - 8.8 °F 11% 30.21 in 10.0 mi South 25.3 mph 29.9 mph N/A   Clear
1:35 PM 63.9 °F - 9.3 °F 12% 30.21 in 10.0 mi South 24.2 mph 32.2 mph N/A   Clear
1:55 PM 63.9 °F - 10.6 °F 12% 30.19 in 10.0 mi South 21.9 mph 28.8 mph N/A   Clear
2:15 PM 63.1 °F - 12.4 °F 14% 30.19 in 10.0 mi South 24.2 mph 29.9 mph N/A   Clear
2:35 PM 64.2 °F - 12.0 °F 13% 30.17 in 10.0 mi South 23.0 mph 28.8 mph N/A   Scattered Clouds
2:55 PM 64.4 °F - 12.0 °F 13% 30.16 in 10.0 mi South 23.0 mph 32.2 mph N/A   Scattered Clouds
3:15 PM 64.8 °F - 12.6 °F 13% 30.16 in 10.0 mi South 23.0 mph 28.8 mph N/A   Clear
3:35 PM 67.8 °F - 12.9 °F 12% 30.14 in 10.0 mi South 20.7 mph 32.2 mph N/A   Scattered Clouds
3:55 PM 68.2 °F - 14.2 °F 13% 30.13 in 10.0 mi South 23.0 mph 31.1 mph N/A   Clear
4:15 PM 67.6 °F - 11.8 °F 12% 30.12 in 10.0 mi South 24.2 mph 28.8 mph N/A   Clear
4:35 PM 67.1 °F - 11.7 °F 12% 30.10 in 10.0 mi SSE 21.9 mph 27.6 mph N/A   Clear
4:55 PM 67.1 °F - 13.8 °F 13% 30.10 in 10.0 mi South 23.0 mph 26.5 mph N/A   Clear
5:15 PM 68.4 °F - 14.5 °F 13% 30.09 in 10.0 mi South 24.2 mph 29.9 mph N/A   Clear
5:35 PM 66.7 °F - 15.6 °F 14% 30.09 in 10.0 mi South 21.9 mph 29.9 mph N/A   Clear
5:55 PM 68.0 °F - 17.4 °F 14% 30.08 in 10.0 mi SSE 21.9 mph 27.6 mph N/A   Clear
6:15 PM 68.4 °F - 21.0 °F 17% 30.07 in 10.0 mi SSE 20.7 mph 28.8 mph N/A   Clear
6:35 PM 67.1 °F - 20.3 °F 17% 30.06 in 10.0 mi SSE 20.7 mph 28.8 mph N/A   Clear
6:55 PM 67.1 °F - 20.8 °F 17% 30.05 in 10.0 mi SSE 24.2 mph 31.1 mph N/A   Clear
7:15 PM 65.3 °F - 21.0 °F 18% 30.04 in 10.0 mi SSE 25.3 mph - N/A   Clear
7:35 PM 63.9 °F - 21.4 °F 20% 30.03 in 10.0 mi SSE 23.0 mph 33.4 mph N/A   Clear
7:55 PM 62.1 °F - 21.2 °F 21% 30.04 in 10.0 mi SSE 20.7 mph 32.2 mph N/A   Clear
8:15 PM 61.7 °F - 22.1 °F 22% 30.04 in 10.0 mi South 26.5 mph 34.5 mph N/A   Clear
8:35 PM 59.7 °F - 21.0 °F 22% 30.03 in 10.0 mi SSE 24.2 mph 29.9 mph N/A   Clear
8:55 PM 58.3 °F - 20.3 °F 23% 30.03 in 10.0 mi SSE 21.9 mph - N/A   Clear
9:15 PM 57.2 °F - 21.2 °F 25% 30.02 in 10.0 mi SSE 21.9 mph - N/A   Clear
9:35 PM 56.7 °F - 22.1 °F 26% 30.03 in 10.0 mi SSE 21.9 mph 27.6 mph N/A   Clear
9:55 PM 56.7 °F - 22.5 °F 27% 30.06 in 10.0 mi South 16.1 mph - N/A   Clear
10:15 PM 56.3 °F - 22.6 °F 27% 30.06 in 10.0 mi SSE 15.0 mph - N/A   Clear
10:35 PM 54.9 °F - 23.0 °F 29% 30.06 in 10.0 mi SSE 16.1 mph - N/A   Scattered Clouds
10:55 PM 53.6 °F - 23.5 °F 31% 30.07 in 10.0 mi South 12.7 mph - N/A   Clear
11:15 PM 52.2 °F - 24.1 °F 34% 30.07 in 10.0 mi SSE 11.5 mph - N/A   Clear
11:35 PM 50.9 °F - 25.2 °F 37% 30.07 in 10.0 mi SSE 9.2 mph - N/A   Clear
11:55 PM 50.0 °F - 26.4 °F 40% 30.07 in 10.0 mi SSE 11.5 mph - N/A   Clear